This is the latest recevied weather packets stored in our database for station/object SP1BMW-13. If no packets are shown the sender has not sent any weather packets the latest 10 day(s).
| Time | Temp. | Humidity | Pressure | Rain* | Wind** | Luminosity | Snow |
|---|---|---|---|---|---|---|---|
| 1788027093 | 20.56° C | 62% | 1010.1 hPa | 0 mm | 0 m/s | 0 W/m² | - |
| 1788027033 | 20.56° C | 62% | 1010 hPa | 0 mm | 0 m/s | 0 W/m² | - |
| 1788026977 | 20.56° C | 63% | 1009.9 hPa | 0 mm | 0 m/s | 0 W/m² | - |
| 1788026913 | 20.56° C | 61% | 1010.1 hPa | 0 mm | 0 m/s | 0 W/m² | - |
| 1788026854 | 21.11° C | 63% | 1010.2 hPa | 0 mm | 0 m/s | 0 W/m² | - |
| 1788026794 | 21.11° C | 60% | 1010.1 hPa | 0 mm | 0 m/s | 0 W/m² | - |
| 1788026733 | 21.11° C | 61% | 1010 hPa | 0 mm | 0 m/s | 0 W/m² | - |
| 1788026673 | 21.11° C | 61% | 1009.9 hPa | 0 mm | 0 m/s | 0 W/m² | - |
| 1788026613 | 21.11° C | 62% | 1009.9 hPa | 0 mm | 0 m/s | 0 W/m² | - |
| 1788026553 | 21.11° C | 60% | 1010.1 hPa | 0 mm | 0 m/s | 1 W/m² | - |
| 1788026493 | 21.11° C | 59% | 1010 hPa | 0 mm | 0 m/s | 1 W/m² | - |
| 1788026433 | 21.11° C | 60% | 1010 hPa | 0 mm | 0 m/s | 1 W/m² | - |
| 1788026314 | 21.11° C | 59% | 1010 hPa | 0 mm | 0 m/s | 1 W/m² | - |
| 1788026253 | 21.11° C | 59% | 1009.9 hPa | 0 mm | 0 m/s | 1 W/m² | - |
| 1788026193 | 21.11° C | 58% | 1010 hPa | 0 mm | 0 m/s | 1 W/m² | - |
| 1788026133 | 21.11° C | 59% | 1010.2 hPa | 0 mm | 0 m/s | 1 W/m² | - |
| 1788026073 | 21.67° C | 57% | 1009.9 hPa | 0 mm | 0 m/s | 1 W/m² | - |
| 1788026013 | 21.67° C | 57% | 1010.1 hPa | 0 mm | 0 m/s | 1 W/m² | - |
| 1788025954 | 21.67° C | 60% | 1009.9 hPa | 0 mm | 0 m/s | 1 W/m² | - |
| 1788025893 | 21.67° C | 59% | 1010.1 hPa | 0 mm | 0 m/s | 1 W/m² | - |
| 1788025833 | 21.67° C | 59% | 1009.9 hPa | 0 mm | 0 m/s | 2 W/m² | - |
| 1788025773 | 21.67° C | 58% | 1010 hPa | 0 mm | 0 m/s | 2 W/m² | - |
| 1788025713 | 21.67° C | 57% | 1009.9 hPa | 0 mm | 0 m/s | 2 W/m² | - |
| 1788025653 | 21.67° C | 58% | 1010 hPa | 0 mm | 0 m/s | 3 W/m² | - |
| 1788025596 | 21.67° C | 57% | 1010 hPa | 0 mm | 0 m/s | 3 W/m² | - |
* Rain latest hour (hover to see other rain measurements)
** Current wind speed in m/s (hover to see current wind gust speed)